MST,Max TemperatureF,Mean TemperatureF,Min TemperatureF,Max Dew PointF,MeanDew PointF,Min DewpointF,Max Humidity, Mean Humidity, Min Humidity, Max Sea Level PressureIn, Mean Sea Level PressureIn, Min Sea Level PressureIn, Max VisibilityMiles, Mean VisibilityMiles, Min VisibilityMiles, Max Wind SpeedMPH, Mean Wind SpeedMPH, Max Gust SpeedMPH,PrecipitationIn, CloudCover, Events, WindDirDegrees
2013-1-1,28,18,7,12,6,1,91,64,37,30.30,30.26,30.17,10,9,6,10,4,12,0.00,3,,192
2013-1-2,29,19,8,9,4,-1,73,52,31,30.46,30.34,30.24,10,10,10,14,6,20,0.00,3,,148
2013-1-3,34,22,9,5,-1,-6,70,45,19,30.48,30.40,30.30,10,10,10,12,4,15,0.00,1,,208
2013-1-4,46,30,14,10,4,-1,60,38,17,30.33,30.21,30.07,10,10,10,8,3,,0.00,0,,219
2013-1-5,37,24,11,16,11,6,73,54,35,30.45,30.31,30.12,10,10,10,14,5,17,0.00,0,,153
2013-1-6,53,33,12,15,7,-2,62,38,14,30.36,30.14,29.91,10,10,10,18,5,22,0.00,3,,169
2013-1-7,49,36,23,13,9,5,55,37,18,30.06,29.93,29.83,10,10,10,14,7,16,0.00,5,,169
2013-1-8,53,39,24,19,12,2,53,37,20,30.22,29.98,29.78,10,10,10,14,6,17,0.00,4,,188
2013-1-9,58,40,21,19,16,13,68,44,19,30.35,30.20,29.99,10,10,10,23,9,26,0.00,1,,168
2013-1-10,52,43,33,15,8,0,40,26,12,29.92,29.65,29.41,10,10,10,25,17,32,0.00,4,,189
2013-1-11,42,26,10,25,16,-4,92,61,30,29.88,29.48,29.24,10,8,1,28,14,37,0.04,5,Snow,166
2013-1-12,18,9,-1,4,0,-5,100,70,40,30.25,30.03,29.76,10,6,0,13,5,16,T,4,Fog-Snow,104
2013-1-13,11,3,-5,3,-1,-7,91,79,66,30.37,30.23,30.00,10,8,2,9,2,13,T,6,Snow,90
2013-1-14,12,5,-3,2,-1,-4,95,81,66,30.39,30.26,29.95,10,8,3,7,2,10,T,4,Snow,281
2013-1-15,31,13,-5,15,3,-8,79,58,36,30.32,30.28,30.21,10,10,7,10,4,13,0.00,5,,213
2013-1-16,48,34,19,20,16,11,68,49,29,30.43,30.30,30.21,10,10,10,13,6,14,0.00,2,,177
2013-1-17,50,35,19,22,17,14,77,52,26,30.52,30.40,30.27,10,10,10,15,6,20,0.00,0,,168
2013-1-18,56,40,24,16,6,-1,68,39,10,30.27,30.16,30.04,10,10,10,13,5,17,0.00,1,,214
2013-1-19,58,41,24,11,5,-4,46,27,8,30.30,30.18,30.07,10,10,10,13,3,15,0.00,2,,149
2013-1-20,48,34,20,16,10,5,77,48,19,30.34,30.24,30.10,10,10,10,17,4,26,0.00,2,,151
2013-1-21,55,36,16,15,6,-6,80,46,11,30.31,30.18,30.06,10,10,10,21,7,29,0.00,1,,237
2013-1-22,63,44,25,0,-8,-17,32,18,4,30.21,30.08,29.99,10,10,10,26,8,35,0.00,2,,222
2013-1-23,60,44,27,8,0,-9,25,16,7,30.19,30.13,30.08,10,10,10,14,6,16,0.00,5,,179
2013-1-24,64,48,31,25,12,1,50,30,9,30.08,30.02,29.89,10,10,10,21,5,30,0.00,4,,165
2013-1-25,55,42,29,26,24,21,69,51,32,30.16,30.10,30.02,10,10,10,20,8,24,0.00,4,,161
2013-1-26,55,42,28,36,28,22,92,62,32,30.05,29.92,29.72,10,10,7,13,4,14,T,5,Rain,130
2013-1-27,58,42,26,36,28,14,100,61,22,29.80,29.72,29.67,10,8,4,22,3,28,0.00,2,,168
2013-1-28,56,40,24,30,25,18,100,64,27,29.78,29.64,29.44,10,6,0,26,9,33,0.05,6,Snow,69
2013-1-29,28,23,17,22,14,5,92,64,35,30.05,29.80,29.66,10,6,0,20,8,25,0.04,7,Fog-Snow,41
2013-1-30,37,22,6,13,9,2,91,62,33,30.06,29.97,29.90,10,10,6,29,9,38,T,4,,285
2013-1-31,46,32,17,20,15,11,75,50,25,30.17,30.08,29.95,10,10,10,29,6,36,0.00,2,,341